When you browse on this site, cookies collect data to enhance your experience and personalize the content and advertising you see.
Visit our Privacy Policy to learn more. By continuing to use the site, you agree to this use of cookies and data.
  • In Spain
  • List of Countries
  • For 7 days
  • Water Temperature
  • Satellite Maps
  • Weather Map
  • Weather Widgets
  • user-avatar
    Login

    Hourly Weather Shiraz

    Today, 17 November, Saturday

    Time Temperature Precipitation Wind Pressure Humidity
    00:00 +15°C° 0 mm 1 mps 640 mmHg 74%
    01:00 +14°C° 0 mm 1 mps 640 mmHg 74%
    02:00 +13°C° 0 mm 0 mps 640 mmHg 75%
    03:00 +13°C° 0 mm 0 mps 639 mmHg 76%
    04:00 +12°C° 0 mm 0 mps 639 mmHg 77%
    05:00 +12°C° 0 mm 0 mps 639 mmHg 77%
    06:00 +12°C° 0 mm 0 mps 639 mmHg 77%
    07:00 +12°C° 0 mm 0 mps 639 mmHg 78%
    08:00 +13°C° 0 mm 0 mps 640 mmHg 71%
    09:00 +15°C° 0 mm 0 mps 640 mmHg 63%
    10:00 +18°C° 0 mm 1 mps 641 mmHg 56%
    11:00 +19°C° 0 mm 1 mps 641 mmHg 49%
    12:00 +19°C° 0 mm 2 mps 641 mmHg 43%
    13:00 +20°C° 0 mm 2 mps 641 mmHg 36%
    14:00 +20°C° 0 mm 2 mps 641 mmHg 32%
    15:00 +20°C° 0 mm 3 mps 640 mmHg 27%
    16:00 +21°C° 0 mm 3 mps 640 mmHg 23%
    17:00 +19°C° 0 mm 2 mps 640 mmHg 26%
    18:00 +18°C° 0 mm 2 mps 639 mmHg 29%
    19:00 +18°C° 0 mm 1 mps 639 mmHg 33%
    20:00 +16°C° 0 mm 1 mps 639 mmHg 34%
    21:00 +15°C° 0 mm 1 mps 639 mmHg 36%
    22:00 +15°C° 0 mm 1 mps 639 mmHg 37%
    23:00 +14°C° 0 mm 1 mps 638 mmHg 37%

    Tomorrow, 18 November, Sunday

    Time Temperature Precipitation Wind Pressure Humidity
    00:00 +14°C° 0 mm 1 mps 638 mmHg 37%
    01:00 +13°C° 0 mm 1 mps 638 mmHg 37%
    02:00 +13°C° 0 mm 1 mps 638 mmHg 37%
    03:00 +12°C° 0 mm 1 mps 637 mmHg 37%
    04:00 +12°C° 0 mm 1 mps 637 mmHg 38%
    05:00 +11°C° 0 mm 1 mps 637 mmHg 38%
    06:00 +11°C° 0 mm 1 mps 637 mmHg 38%
    07:00 +11°C° 0 mm 1 mps 637 mmHg 38%
    08:00 +12°C° 0 mm 1 mps 638 mmHg 33%
    09:00 +14°C° 0 mm 1 mps 638 mmHg 28%
    10:00 +16°C° 0 mm 1 mps 639 mmHg 23%
    11:00 +18°C° 0 mm 1 mps 639 mmHg 21%
    12:00 +18°C° 0 mm 1 mps 639 mmHg 20%
    13:00 +19°C° 0 mm 1 mps 639 mmHg 19%
    14:00 +19°C° 0 mm 1 mps 639 mmHg 19%
    15:00 +20°C° 0 mm 1 mps 638 mmHg 19%
    16:00 +20°C° 0 mm 1 mps 638 mmHg 19%
    17:00 +19°C° 0 mm 1 mps 638 mmHg 24%
    18:00 +18°C° 0 mm 1 mps 638 mmHg 29%
    19:00 +15°C° 0 mm 0 mps 637 mmHg 34%
    20:00 +14°C° 0 mm 0 mps 637 mmHg 35%
    21:00 +13°C° 0 mm 0 mps 637 mmHg 35%
    22:00 +13°C° 0 mm 0 mps 637 mmHg 36%
    23:00 +12°C° 0 mm 0 mps 637 mmHg 36%

    Day after tomorrow, 19 November, Monday

    Time Temperature Precipitation Wind Pressure Humidity
    00:00 +12°C° 0 mm 0 mps 637 mmHg 36%
    01:00 +12°C° 0 mm 0 mps 637 mmHg 36%
    02:00 +11°C° 0 mm 0 mps 636 mmHg 37%
    03:00 +11°C° 0 mm 0 mps 636 mmHg 37%
    04:00 +10°C° 0 mm 0 mps 636 mmHg 37%
    05:00 +10°C° 0 mm 0 mps 636 mmHg 37%
    06:00 +10°C° 0 mm 0 mps 636 mmHg 36%
    07:00 +9°C° 0 mm 0 mps 636 mmHg 36%
    08:00 +11°C° 0 mm 0 mps 637 mmHg 32%
    09:00 +13°C° 0 mm 0 mps 638 mmHg 27%
    10:00 +15°C° 0 mm 0 mps 639 mmHg 22%
    11:00 +18°C° 0 mm 1 mps 639 mmHg 21%
    12:00 +19°C° 0 mm 1 mps 639 mmHg 20%
    13:00 +20°C° 0 mm 1 mps 639 mmHg 19%
    14:00 +20°C° 0 mm 1 mps 639 mmHg 19%
    15:00 +20°C° 0 mm 1 mps 639 mmHg 18%
    16:00 +20°C° 0 mm 1 mps 639 mmHg 18%
    17:00 +19°C° 0 mm 1 mps 638 mmHg 23%
    18:00 +18°C° 0 mm 1 mps 638 mmHg 28%
    19:00 +15°C° 0 mm 0 mps 638 mmHg 33%
    20:00 +14°C° 0 mm 0 mps 638 mmHg 34%
    21:00 +14°C° 0 mm 0 mps 638 mmHg 35%
    22:00 +13°C° 0 mm 0 mps 638 mmHg 36%
    23:00 +13°C° 0 mm 0 mps 638 mmHg 36%

    20 November, Tuesday

    Time Temperature Precipitation Wind Pressure Humidity
    00:00 +12°C° 0 mm 0 mps 638 mmHg 36%
    01:00 +12°C° 0 mm 0 mps 637 mmHg 36%
    02:00 +12°C° 0 mm 0 mps 637 mmHg 36%
    03:00 +11°C° 0 mm 0 mps 637 mmHg 37%
    04:00 +11°C° 0 mm 0 mps 637 mmHg 37%
    05:00 +11°C° 0 mm 0 mps 637 mmHg 37%
    06:00 +10°C° 0 mm 0 mps 637 mmHg 36%
    07:00 +11°C° 0 mm 1 mps 637 mmHg 36%
    08:00 +13°C° 0 mm 1 mps 638 mmHg 31%
    09:00 +14°C° 0 mm 1 mps 639 mmHg 27%
    10:00 +16°C° 0 mm 1 mps 640 mmHg 22%
    11:00 +16°C° 0 mm 1 mps 639 mmHg 21%
    12:00 +17°C° 0 mm 2 mps 639 mmHg 20%
    13:00 +17°C° 0 mm 2 mps 639 mmHg 19%
    14:00 +16°C° 0.5 mm 2 mps 638 mmHg 26%
    15:00 +14°C° 0.5 mm 2 mps 638 mmHg 33%
    16:00 +13°C° 0.5 mm 2 mps 637 mmHg 40%
    17:00 +12°C° 0.1 mm 2 mps 637 mmHg 43%
    18:00 +12°C° 0.1 mm 1 mps 637 mmHg 46%
    19:00 +12°C° 0.1 mm 1 mps 637 mmHg 49%
    20:00 +12°C° 0 mm 1 mps 637 mmHg 51%
    21:00 +11°C° 0 mm 1 mps 637 mmHg 52%
    22:00 +11°C° 0 mm 1 mps 638 mmHg 54%
    23:00 +11°C° 0 mm 1 mps 637 mmHg 55%

    21 November, Wednesday

    Time Temperature Precipitation Wind Pressure Humidity
    00:00 +9°C° 0 mm 0 mps 637 mmHg 56%
    01:00 +9°C° 0 mm 0 mps 637 mmHg 57%
    02:00 +9°C° 0 mm 0 mps 636 mmHg 57%
    03:00 +10°C° 0 mm 1 mps 636 mmHg 58%
    04:00 +9°C° 0 mm 1 mps 636 mmHg 58%
    05:00 +8°C° 0 mm 0 mps 636 mmHg 59%
    06:00 +8°C° 0 mm 0 mps 636 mmHg 59%
    07:00 +8°C° 0 mm 0 mps 636 mmHg 60%
    08:00 +9°C° 0 mm 0 mps 637 mmHg 54%
    09:00 +10°C° 0 mm 0 mps 637 mmHg 48%
    10:00 +12°C° 0 mm 0 mps 638 mmHg 42%
    11:00 +13°C° 0 mm 0 mps 638 mmHg 38%
    12:00 +15°C° 0 mm 1 mps 638 mmHg 34%
    13:00 +16°C° 0 mm 1 mps 638 mmHg 31%
    14:00 +16°C° 0 mm 1 mps 637 mmHg 29%
    15:00 +16°C° 0 mm 1 mps 637 mmHg 28%
    16:00 +16°C° 0 mm 1 mps 637 mmHg 27%
    17:00 +15°C° 0 mm 1 mps 637 mmHg 31%
    18:00 +15°C° 0 mm 1 mps 637 mmHg 35%
    19:00 +14°C° 0 mm 1 mps 637 mmHg 39%
    20:00 +12°C° 0 mm 0 mps 637 mmHg 40%
    21:00 +12°C° 0 mm 0 mps 637 mmHg 41%
    22:00 +11°C° 0 mm 0 mps 637 mmHg 42%
    23:00 +11°C° 0 mm 0 mps 637 mmHg 42%

    22 November, Thursday

    Time Temperature Precipitation Wind Pressure Humidity
    00:00 +11°C° 0 mm 0 mps 637 mmHg 43%
    01:00 +10°C° 0 mm 0 mps 636 mmHg 43%
    02:00 +10°C° 0 mm 0 mps 636 mmHg 44%
    03:00 +9°C° 0 mm 0 mps 636 mmHg 44%
    04:00 +9°C° 0 mm 0 mps 636 mmHg 44%
    05:00 +9°C° 0 mm 0 mps 636 mmHg 45%
    06:00 +9°C° 0 mm 0 mps 636 mmHg 45%
    07:00 +8°C° 0 mm 0 mps 636 mmHg 45%
    08:00 +10°C° 0 mm 0 mps 637 mmHg 40%
    09:00 +12°C° 0 mm 0 mps 638 mmHg 34%
    10:00 +15°C° 0 mm 1 mps 639 mmHg 29%
    11:00 +16°C° 0 mm 1 mps 638 mmHg 26%
    12:00 +16°C° 0 mm 1 mps 638 mmHg 23%
    13:00 +17°C° 0 mm 2 mps 638 mmHg 20%
    14:00 +18°C° 0 mm 2 mps 638 mmHg 20%
    15:00 +18°C° 0 mm 2 mps 637 mmHg 19%
    16:00 +18°C° 0 mm 2 mps 637 mmHg 19%
    17:00 +17°C° 0 mm 2 mps 637 mmHg 22%
    18:00 +16°C° 0 mm 1 mps 637 mmHg 26%
    19:00 +15°C° 0 mm 1 mps 637 mmHg 30%
    20:00 +14°C° 0 mm 1 mps 637 mmHg 31%
    21:00 +13°C° 0 mm 1 mps 637 mmHg 33%
    22:00 +13°C° 0 mm 1 mps 637 mmHg 34%
    23:00 +13°C° 0 mm 1 mps 636 mmHg 35%
    Show more